Location: Newark
(41.0400°S, 62.7845°W)
Time: 16:33:36
(UTC+00:00)

Vanguard 2 Rocket - Pass Details

Date: 02 December 2021
Orbit: 553 x 3325 km, 32.9° (Epoch: 23 January)

Event Time Altitude Azimuth Distance (km) Brightness Sun altitude
Rises 14:41:31 0° 266° (W) 5,485 10.7 64.7°
Reaches altitude 10° 14:46:16 10° 275° (W) 3,972 10.1 65.4°
Maximum altitude 14:54:12 30° 330° (NNW) 1,955 9.2 66.4°
Drops below altitude 10° 14:59:19 10° 29° (NNE) 2,498 9.7 67.0°
Sets 15:01:38 0° 41° (NE) 3,201 10.0 67.3°
